When you browse on this site, cookies collect data to enhance your experience and personalize the content and advertising you see.
Visit our Privacy Policy to learn more. By continuing to use the site, you agree to this use of cookies and data.
  • In Hungary
  • List of Countries
  • For 7 days
  • Water Temperature
  • Satellite Maps
  • Weather Map
  • News
  • Weather Widgets
  • user-avatar
    Login

    Hourly Weather Gazgan

    Today, 14 December, Friday

    Time Temperature Precipitation Wind Pressure Humidity
    00:00 +7°C° 0 mm 2 mps 713 mmHg 33%
    01:00 +7°C° 0 mm 2 mps 714 mmHg 32%
    02:00 +7°C° 0 mm 2 mps 713 mmHg 31%
    03:00 +7°C° 0 mm 2 mps 713 mmHg 31%
    04:00 +7°C° 0 mm 2 mps 713 mmHg 30%
    05:00 +7°C° 0 mm 2 mps 713 mmHg 29%
    06:00 +7°C° 0 mm 2 mps 714 mmHg 29%
    07:00 +7°C° 0 mm 2 mps 714 mmHg 29%
    08:00 +9°C° 0 mm 2 mps 714 mmHg 26%
    09:00 +12°C° 0 mm 2 mps 714 mmHg 23%
    10:00 +15°C° 0 mm 2 mps 714 mmHg 20%
    11:00 +16°C° 0 mm 2 mps 714 mmHg 19%
    12:00 +17°C° 0 mm 2 mps 714 mmHg 18%
    13:00 +18°C° 0 mm 2 mps 714 mmHg 16%
    14:00 +16°C° 0 mm 2 mps 714 mmHg 18%
    15:00 +15°C° 0 mm 2 mps 714 mmHg 20%
    16:00 +13°C° 0 mm 2 mps 714 mmHg 22%
    17:00 +13°C° 0 mm 2 mps 715 mmHg 23%
    18:00 +12°C° 0 mm 2 mps 715 mmHg 24%
    19:00 +12°C° 0 mm 2 mps 715 mmHg 25%
    20:00 +12°C° 0 mm 2 mps 715 mmHg 25%
    21:00 +10°C° 0 mm 2 mps 716 mmHg 25%
    22:00 +10°C° 0 mm 2 mps 716 mmHg 26%
    23:00 +10°C° 0 mm 2 mps 716 mmHg 26%

    Tomorrow, 15 December, Saturday

    Time Temperature Precipitation Wind Pressure Humidity
    00:00 +9°C° 0 mm 2 mps 716 mmHg 27%
    01:00 +9°C° 0 mm 2 mps 716 mmHg 28%
    02:00 +8°C° 0 mm 2 mps 716 mmHg 30%
    03:00 +8°C° 0 mm 1 mps 716 mmHg 31%
    04:00 +8°C° 0 mm 1 mps 716 mmHg 33%
    05:00 +7°C° 0 mm 1 mps 716 mmHg 35%
    06:00 +7°C° 0 mm 1 mps 716 mmHg 37%
    07:00 +6°C° 0 mm 1 mps 716 mmHg 39%
    08:00 +8°C° 0 mm 1 mps 716 mmHg 35%
    09:00 +10°C° 0 mm 1 mps 716 mmHg 32%
    10:00 +11°C° 0 mm 1 mps 716 mmHg 29%
    11:00 +12°C° 0 mm 1 mps 716 mmHg 27%
    12:00 +13°C° 0 mm 1 mps 715 mmHg 26%
    13:00 +14°C° 0 mm 1 mps 715 mmHg 24%
    14:00 +13°C° 0 mm 1 mps 715 mmHg 26%
    15:00 +12°C° 0 mm 1 mps 715 mmHg 28%
    16:00 +11°C° 0 mm 1 mps 715 mmHg 31%
    17:00 +9°C° 0 mm 2 mps 715 mmHg 30%
    18:00 +9°C° 0 mm 2 mps 715 mmHg 30%
    19:00 +8°C° 0 mm 2 mps 715 mmHg 29%
    20:00 +8°C° 0 mm 2 mps 716 mmHg 32%
    21:00 +7°C° 0 mm 3 mps 716 mmHg 36%
    22:00 +7°C° 0 mm 3 mps 716 mmHg 39%
    23:00 +5°C° 0 mm 3 mps 716 mmHg 45%

    Day after tomorrow, 16 December, Sunday

    Time Temperature Precipitation Wind Pressure Humidity
    00:00 +5°C° 0 mm 3 mps 716 mmHg 50%
    01:00 +4°C° 0 mm 4 mps 717 mmHg 56%
    02:00 +3°C° 0 mm 3 mps 717 mmHg 62%
    03:00 +3°C° 0 mm 3 mps 717 mmHg 68%
    04:00 +3°C° 0 mm 2 mps 718 mmHg 74%
    05:00 +3°C° 0 mm 2 mps 718 mmHg 78%
    06:00 +3°C° 0 mm 1 mps 719 mmHg 82%
    07:00 +3°C° 0 mm 1 mps 719 mmHg 86%
    08:00 +4°C° 0 mm 1 mps 719 mmHg 81%
    09:00 +5°C° 0 mm 1 mps 720 mmHg 76%
    10:00 +6°C° 0 mm 1 mps 720 mmHg 72%
    11:00 +6°C° 0 mm 2 mps 720 mmHg 69%
    12:00 +6°C° 0 mm 2 mps 719 mmHg 67%
    13:00 +7°C° 0 mm 2 mps 719 mmHg 64%
    14:00 +5°C° 0 mm 3 mps 719 mmHg 68%
    15:00 +5°C° 0 mm 3 mps 719 mmHg 72%
    16:00 +4°C° 0 mm 3 mps 719 mmHg 76%
    17:00 +4°C° 0 mm 3 mps 719 mmHg 79%
    18:00 +3°C° 0 mm 3 mps 718 mmHg 81%
    19:00 +3°C° 0 mm 3 mps 718 mmHg 84%
    20:00 +4°C° 0 mm 2 mps 718 mmHg 85%
    21:00 +4°C° 0 mm 2 mps 717 mmHg 85%
    22:00 +4°C° 0 mm 2 mps 717 mmHg 86%
    23:00 +4°C° 0 mm 2 mps 716 mmHg 85%

    17 December, Monday

    Time Temperature Precipitation Wind Pressure Humidity
    00:00 +4°C° 0 mm 2 mps 716 mmHg 83%
    01:00 +3°C° 0 mm 2 mps 716 mmHg 82%
    02:00 +5°C° 0 mm 1 mps 715 mmHg 79%
    03:00 +5°C° 0 mm 1 mps 715 mmHg 75%
    04:00 +5°C° 0 mm 1 mps 715 mmHg 72%
    05:00 +5°C° 0 mm 1 mps 715 mmHg 68%
    06:00 +5°C° 0 mm 1 mps 715 mmHg 65%
    07:00 +5°C° 0 mm 1 mps 715 mmHg 61%
    08:00 +7°C° 0 mm 1 mps 715 mmHg 53%
    09:00 +8°C° 0 mm 2 mps 715 mmHg 45%
    10:00 +9°C° 0 mm 2 mps 715 mmHg 37%
    11:00 +10°C° 0 mm 2 mps 715 mmHg 33%
    12:00 +11°C° 0 mm 3 mps 715 mmHg 29%
    13:00 +12°C° 0 mm 3 mps 715 mmHg 25%
    14:00 +11°C° 0 mm 3 mps 715 mmHg 28%
    15:00 +10°C° 0 mm 3 mps 715 mmHg 31%
    16:00 +9°C° 0 mm 2 mps 715 mmHg 34%
    17:00 +9°C° 0 mm 2 mps 715 mmHg 37%
    18:00 +8°C° 0 mm 2 mps 716 mmHg 40%
    19:00 +7°C° 0 mm 2 mps 716 mmHg 43%
    20:00 +7°C° 0 mm 2 mps 716 mmHg 46%
    21:00 +6°C° 0 mm 2 mps 716 mmHg 49%
    22:00 +7°C° 0 mm 1 mps 716 mmHg 52%
    23:00 +6°C° 0 mm 1 mps 716 mmHg 55%

    18 December, Tuesday

    Time Temperature Precipitation Wind Pressure Humidity
    00:00 +6°C° 0 mm 1 mps 716 mmHg 57%
    01:00 +6°C° 0 mm 1 mps 716 mmHg 59%
    02:00 +5°C° 0 mm 1 mps 716 mmHg 61%
    03:00 +5°C° 0 mm 1 mps 716 mmHg 62%
    04:00 +4°C° 0 mm 0 mps 716 mmHg 64%
    05:00 +5°C° 0 mm 1 mps 716 mmHg 64%
    06:00 +5°C° 0 mm 1 mps 716 mmHg 65%
    07:00 +5°C° 0 mm 1 mps 716 mmHg 65%
    08:00 +6°C° 0 mm 1 mps 716 mmHg 60%
    09:00 +8°C° 0 mm 1 mps 716 mmHg 56%
    10:00 +9°C° 0 mm 1 mps 716 mmHg 51%
    11:00 +9°C° 0 mm 2 mps 715 mmHg 48%
    12:00 +9°C° 0 mm 2 mps 715 mmHg 46%
    13:00 +10°C° 0 mm 2 mps 714 mmHg 43%
    14:00 +9°C° 0 mm 2 mps 714 mmHg 46%
    15:00 +8°C° 0 mm 2 mps 714 mmHg 49%
    16:00 +8°C° 0 mm 2 mps 713 mmHg 52%
    17:00 +7°C° 0 mm 2 mps 713 mmHg 54%
    18:00 +8°C° 0 mm 1 mps 713 mmHg 55%
    19:00 +7°C° 0 mm 1 mps 713 mmHg 56%
    20:00 +7°C° 0 mm 1 mps 713 mmHg 56%
    21:00 +7°C° 0 mm 1 mps 712 mmHg 56%
    22:00 +6°C° 0 mm 2 mps 712 mmHg 56%
    23:00 +6°C° 0 mm 2 mps 712 mmHg 56%

    19 December, Wednesday

    Time Temperature Precipitation Wind Pressure Humidity
    00:00 +7°C° 0 mm 1 mps 711 mmHg 57%
    01:00 +7°C° 0 mm 1 mps 711 mmHg 58%
    02:00 +7°C° 0 mm 1 mps 710 mmHg 58%
    03:00 +7°C° 0 mm 1 mps 710 mmHg 58%
    04:00 +7°C° 0 mm 1 mps 710 mmHg 58%
    05:00 +7°C° 0 mm 1 mps 710 mmHg 58%
    06:00 +7°C° 0 mm 1 mps 710 mmHg 58%
    07:00 +7°C° 0 mm 1 mps 710 mmHg 58%
    08:00 +8°C° 0 mm 1 mps 710 mmHg 55%
    09:00 +8°C° 0 mm 1 mps 710 mmHg 52%
    10:00 +9°C° 0 mm 1 mps 710 mmHg 49%
    11:00 +10°C° 0 mm 1 mps 710 mmHg 46%
    12:00 +11°C° 0 mm 1 mps 710 mmHg 44%
    13:00 +11°C° 0 mm 1 mps 710 mmHg 42%
    14:00 +11°C° 0 mm 1 mps 710 mmHg 44%
    15:00 +10°C° 0 mm 1 mps 710 mmHg 46%
    16:00 +10°C° 0 mm 1 mps 710 mmHg 48%
    17:00 +9°C° 0 mm 1 mps 711 mmHg 50%
    18:00 +9°C° 0 mm 1 mps 712 mmHg 52%
    19:00 +9°C° 0 mm 1 mps 712 mmHg 54%
    20:00 +7°C° 0 mm 2 mps 713 mmHg 55%
    21:00 +7°C° 0 mm 3 mps 713 mmHg 55%
    22:00 +7°C° 0 mm 3 mps 713 mmHg 56%
    23:00 +5°C° 0.1 mm 4 mps 714 mmHg 60%
    Show more